Weather History for Weslaco, TX

Change the Weather History Date:

Friday, December 6, 2013

  Actual Average (KMFE) Record (KMFE)
Temperature  
Mean Temperature 45 °F 64 °F  
Max Temperature 49 °F 74 °F 94 °F (1977)
Min Temperature 41 °F 53 °F 28 °F (1887)
Degree Days  
Heating Degree Days 20 5  
Month to date heating degree days 25  
Since 1 July heating degree days 85  
Cooling Degree Days 0 3  
Month to date cooling degree days 20  
Year to date cooling degree days 4389  
Moisture  
Dew Point 38 °F    
Average Humidity 76    
Maximum Humidity 91    
Minimum Humidity 59    
Precipitation  
Precipitation 0.00 in 0.03 in 0.39 in (1971)
Month to date precipitation 0.19  
Year to date precipitation 21.20  
Sea Level Pressure  
Sea Level Pressure 30.16 in    
Wind  
Wind Speed 12 mph (North)    
Max Wind Speed 16 mph    
Max Gust Speed 24 mph    
Visibility 6 miles    
Events      
T = Trace of Precipitation, MM = Missing Value Source: NWS Daily Summary

Daily Weather History Graph

Daily Weather History Graph

Search for Another Location

Airport:

Trip Planner

Search our weather history database for the weather conditions in past years. The results will help you decide how hot, cold, wet, or windy it might be!

Date:

Astronomy

Dec. 06, 2013 Rise Set
Actual Time 7:06 AM CST 5:40 PM CST
Civil Twilight 6:40 AM CST 6:05 PM CST
Nautical Twilight 6:12 AM CST 6:33 PM CST
Astronomical Twilight 5:44 AM CST 7:02 PM CST
Moon 10:25 AM CST (12/6) 9:58 PM CST (12/6)
Length of Visible Light 11h 24m
Length of Day
10h 34m
Waxing Crescent, 19% of the Moon is Illuminated
Dec 6
Waxing Crescent
Dec 9
First Quarter
Dec 17
Full
Dec 25
Last Quarter
Jan 1
New

Hourly Weather History & Observations

Time (CST) Temp. Windchill Dew Point Humidity Pressure Visibility Wind Dir Wind Speed Gust Speed Precip Events Conditions
12:15 AM 49.8 °F - 45.7 °F 86% 29.96 in 4.0 mi North 12.7 mph 17.3 mph N/A   Overcast
12:35 AM 47.5 °F - 43.9 °F 87% 29.97 in 4.0 mi North 11.5 mph 21.9 mph N/A   Overcast
12:55 AM 47.3 °F - 44.2 °F 89% 29.98 in 3.0 mi North 12.7 mph - N/A   Overcast
1:15 AM 46.4 °F 40.1 °F 43.5 °F 90% 29.98 in 3.0 mi North 15.0 mph 20.7 mph N/A   Overcast
1:35 AM 45.9 °F 40.4 °F 43.2 °F 90% 29.98 in 2.5 mi North 11.5 mph 19.6 mph N/A   Overcast
1:55 AM 45.5 °F 39.2 °F 43.0 °F 91% 29.98 in 4.0 mi NNW 13.8 mph 19.6 mph N/A   Overcast
2:15 AM 45.5 °F 38.9 °F 42.8 °F 90% 29.98 in 3.0 mi North 15.0 mph 19.6 mph N/A   Overcast
2:35 AM 45.0 °F 38.2 °F 42.1 °F 90% 29.99 in 4.0 mi North 15.0 mph 21.9 mph N/A   Overcast
2:55 AM 44.8 °F 38.0 °F 42.1 °F 90% 30.00 in 3.0 mi North 15.0 mph 21.9 mph N/A   Overcast
3:15 AM 44.4 °F 37.9 °F 41.9 °F 91% 30.01 in 2.5 mi North 13.8 mph 21.9 mph N/A   Overcast
3:35 AM 44.1 °F 37.7 °F 41.0 °F 89% 30.01 in 5.0 mi North 12.7 mph 20.7 mph N/A   Overcast
3:55 AM 43.7 °F 38.1 °F 41.0 °F 90% 30.01 in 4.0 mi North 10.4 mph - N/A   Overcast
4:15 AM 43.7 °F 37.7 °F 40.5 °F 88% 30.00 in 4.0 mi North 11.5 mph 17.3 mph N/A   Overcast
4:35 AM 43.3 °F 38.6 °F 40.3 °F 89% 30.00 in 5.0 mi North 8.1 mph - N/A   Overcast
4:55 AM 43.3 °F 38.1 °F 40.1 °F 88% 30.01 in 5.0 mi North 9.2 mph - N/A   Overcast
5:15 AM 43.0 °F 38.2 °F 40.1 °F 90% 30.02 in 5.0 mi North 8.1 mph - N/A   Overcast
5:35 AM 43.2 °F 39.0 °F 39.6 °F 87% 30.04 in 5.0 mi North 6.9 mph - N/A   Overcast
5:55 AM 42.6 °F 37.2 °F 39.4 °F 88% 30.05 in 3.0 mi North 9.2 mph 17.3 mph N/A   Overcast
6:15 AM 42.3 °F 36.3 °F 39.6 °F 90% 30.06 in 2.5 mi North 10.4 mph - N/A   Overcast
6:35 AM 41.9 °F 35.0 °F 39.2 °F 90% 30.06 in 4.0 mi North 12.7 mph - N/A   Overcast
6:55 AM 41.9 °F 35.0 °F 38.8 °F 89% 30.07 in 4.0 mi North 12.7 mph - N/A   Overcast
7:15 AM 41.9 °F 35.4 °F 39.0 °F 90% 30.09 in 4.0 mi North 11.5 mph - N/A   Overcast
7:35 AM 42.1 °F 35.2 °F 38.3 °F 86% 30.09 in 5.0 mi NNW 12.7 mph 17.3 mph N/A   Overcast
7:55 AM 42.1 °F 35.7 °F 38.3 °F 86% 30.12 in 5.0 mi NNW 11.5 mph 19.6 mph N/A   Overcast
8:15 AM 41.9 °F 34.6 °F 38.3 °F 87% 30.13 in 3.0 mi NNW 13.8 mph - N/A   Overcast
8:35 AM 41.9 °F 35.4 °F 38.7 °F 88% 30.14 in 2.5 mi North 11.5 mph 17.3 mph N/A   Overcast
8:55 AM 41.9 °F 35.4 °F 39.2 °F 90% 30.15 in 3.0 mi NNW 11.5 mph 18.4 mph N/A   Overcast
9:15 AM 41.9 °F 35.9 °F 38.8 °F 89% 30.17 in 4.0 mi North 10.4 mph 18.4 mph N/A   Overcast
9:35 AM 42.1 °F 34.9 °F 38.8 °F 88% 30.18 in 5.0 mi NNW 13.8 mph 17.3 mph N/A   Overcast
9:55 AM 42.1 °F 34.2 °F 38.7 °F 88% 30.19 in 7.0 mi North 16.1 mph 21.9 mph N/A   Overcast
10:15 AM 42.4 °F 35.0 °F 38.1 °F 85% 30.20 in 7.0 mi NNW 15.0 mph 21.9 mph N/A   Overcast
10:35 AM 42.8 °F 36.2 °F 37.9 °F 83% 30.20 in 7.0 mi North 12.7 mph 17.3 mph N/A   Overcast
10:55 AM 42.6 °F 35.6 °F 37.9 °F 83% 30.20 in 5.0 mi North 13.8 mph 17.3 mph N/A   Haze
11:15 AM 42.4 °F 36.5 °F 37.6 °F 83% 30.21 in 4.0 mi North 10.4 mph 20.7 mph N/A   Haze
11:35 AM 42.8 °F 37.0 °F 37.9 °F 83% 30.21 in 7.0 mi North 10.4 mph - N/A   Overcast
11:55 AM 43.7 °F 37.7 °F 36.9 °F 77% 30.21 in 7.0 mi North 11.5 mph 18.4 mph N/A   Overcast
12:15 PM 44.4 °F 37.5 °F 36.5 °F 74% 30.20 in 10.0 mi NNW 15.0 mph 20.7 mph N/A   Overcast
12:35 PM 44.8 °F 39.0 °F 36.0 °F 71% 30.20 in 7.0 mi North 11.5 mph 19.6 mph N/A   Overcast
12:55 PM 45.5 °F 39.2 °F 36.1 °F 70% 30.19 in 7.0 mi North 13.8 mph - N/A   Overcast
1:15 PM 45.5 °F 38.6 °F 35.8 °F 69% 30.19 in 7.0 mi North 16.1 mph 23.0 mph N/A   Overcast
1:35 PM 45.3 °F 38.7 °F 35.2 °F 68% 30.19 in 7.0 mi North 15.0 mph 24.2 mph N/A   Overcast
1:55 PM 45.1 °F 38.8 °F 35.1 °F 68% 30.18 in 7.0 mi North 13.8 mph 23.0 mph N/A   Overcast
2:15 PM 45.7 °F 39.8 °F 35.1 °F 66% 30.18 in 7.0 mi North 12.7 mph 18.4 mph N/A   Overcast
2:35 PM 47.1 °F - 35.8 °F 65% 30.18 in 7.0 mi North 12.7 mph 19.6 mph N/A   Overcast
2:55 PM 47.3 °F - 35.8 °F 64% 30.18 in 7.0 mi North 16.1 mph 21.9 mph N/A   Overcast
3:15 PM 47.5 °F - 35.8 °F 64% 30.17 in 7.0 mi NNW 15.0 mph 19.6 mph N/A   Overcast
3:35 PM 47.7 °F - 35.6 °F 63% 30.18 in 7.0 mi North 15.0 mph 24.2 mph N/A   Overcast
3:55 PM 48.2 °F - 35.8 °F 62% 30.18 in 7.0 mi North 11.5 mph 16.1 mph N/A   Overcast
4:15 PM 48.6 °F - 36.0 °F 62% 30.19 in 7.0 mi North 10.4 mph - N/A   Overcast
4:35 PM 48.6 °F - 35.8 °F 61% 30.19 in 7.0 mi North 13.8 mph 18.4 mph N/A   Overcast
5:55 PM 48.2 °F - 36.5 °F 64% 30.23 in 5.0 mi NNW 9.2 mph - N/A   Haze
6:15 PM 48.2 °F - 36.3 °F 63% 30.24 in 7.0 mi North 11.5 mph - N/A   Overcast
6:35 PM 47.8 °F - 36.1 °F 64% 30.26 in 10.0 mi NNW 10.4 mph 16.1 mph N/A   Overcast
6:55 PM 48.0 °F - 36.7 °F 65% 30.26 in 10.0 mi NNW 13.8 mph 18.4 mph N/A   Overcast
7:15 PM 48.2 °F - 36.9 °F 65% 30.27 in 10.0 mi NNW 11.5 mph - N/A   Overcast
7:35 PM 48.2 °F - 36.1 °F 63% 30.29 in 10.0 mi NNW 13.8 mph 20.7 mph N/A   Overcast
7:55 PM 48.2 °F - 36.0 °F 63% 30.29 in 10.0 mi NNW 9.2 mph - N/A   Overcast
8:15 PM 48.2 °F - 34.9 °F 60% 30.30 in 10.0 mi NNW 15.0 mph 20.7 mph N/A   Overcast
8:35 PM 48.2 °F - 35.2 °F 61% 30.31 in 10.0 mi NNW 13.8 mph - N/A   Overcast
8:55 PM 48.2 °F - 34.9 °F 60% 30.32 in 10.0 mi North 6.9 mph - N/A   Overcast
9:15 PM 48.2 °F - 34.7 °F 60% 30.32 in 10.0 mi North 9.2 mph - N/A   Overcast
9:35 PM 48.2 °F - 35.1 °F 60% 30.33 in 10.0 mi NNW 9.2 mph - N/A   Overcast
9:55 PM 47.8 °F - 34.2 °F 59% 30.34 in 7.0 mi North 11.5 mph - N/A   Overcast
10:15 PM 47.7 °F - 34.0 °F 59% 30.34 in 10.0 mi North 9.2 mph 16.1 mph N/A   Overcast
10:35 PM 47.3 °F - 33.8 °F 59% 30.34 in 10.0 mi North 9.2 mph - N/A   Overcast
10:55 PM 47.1 °F - 33.6 °F 59% 30.35 in 10.0 mi North 11.5 mph 17.3 mph N/A   Overcast
11:15 PM 46.9 °F - 34.0 °F 61% 30.35 in 10.0 mi North 8.1 mph - N/A   Overcast
11:35 PM 46.4 °F 41.5 °F 34.7 °F 64% 30.35 in 10.0 mi North 10.4 mph - N/A   Overcast
11:55 PM 45.7 °F 41.0 °F 35.1 °F 66% 30.36 in 10.0 mi North 9.2 mph - N/A   Drizzle